TimeEDT,TemperatureF,Dew PointF,Humidity,Sea Level PressureIn,VisibilityMPH,Wind Direction,Wind SpeedMPH,Gust SpeedMPH,PrecipitationIn,Events,Conditions,WindDirDegrees,DateUTC
12:15 AM,37.4,32.0,81,30.10,10.0,West,6.9,-,N/A,,Overcast,280,2013-03-27 04:15:00
12:35 AM,35.6,32.0,87,30.10,10.0,WNW,8.1,-,N/A,,Overcast,290,2013-03-27 04:35:00
12:55 AM,35.6,32.0,87,30.10,10.0,WNW,10.4,-,N/A,,Overcast,290,2013-03-27 04:55:00
1:15 AM,35.6,32.0,87,30.11,10.0,WNW,9.2,-,N/A,,Overcast,290,2013-03-27 05:15:00
1:35 AM,35.6,32.0,87,30.11,10.0,WNW,9.2,-,N/A,,Overcast,290,2013-03-27 05:35:00
1:55 AM,35.6,32.0,87,30.11,10.0,WNW,9.2,-,N/A,,Overcast,290,2013-03-27 05:55:00
2:15 AM,35.6,32.0,87,30.11,10.0,WNW,9.2,-,N/A,,Overcast,290,2013-03-27 06:15:00
2:35 AM,35.6,32.0,87,30.11,10.0,West,9.2,-,N/A,,Overcast,280,2013-03-27 06:35:00
2:55 AM,35.6,32.0,87,30.11,10.0,WNW,10.4,-,N/A,,Overcast,290,2013-03-27 06:55:00
3:15 AM,35.6,30.2,81,30.10,10.0,West,8.1,-,N/A,,Overcast,280,2013-03-27 07:15:00
3:36 AM,35.6,30.2,81,30.10,10.0,WNW,8.1,-,N/A,,Overcast,290,2013-03-27 07:36:00
3:56 AM,35.6,30.2,81,30.11,10.0,WNW,9.2,-,N/A,,Overcast,300,2013-03-27 07:56:00
4:16 AM,35.6,30.2,81,30.11,10.0,WNW,8.1,-,N/A,,Mostly Cloudy,300,2013-03-27 08:16:00
4:36 AM,33.8,30.2,87,30.11,10.0,WNW,8.1,-,N/A,,Scattered Clouds,290,2013-03-27 08:36:00
4:56 AM,33.8,28.4,81,30.11,10.0,WNW,9.2,-,N/A,,Clear,290,2013-03-27 08:56:00
5:16 AM,33.8,28.4,81,30.12,10.0,WNW,10.4,-,N/A,,Clear,300,2013-03-27 09:16:00
5:36 AM,33.8,28.4,81,30.12,10.0,WNW,8.1,-,N/A,,Clear,300,2013-03-27 09:36:00
5:56 AM,33.8,28.4,81,30.12,10.0,WNW,8.1,-,N/A,,Clear,290,2013-03-27 09:56:00
6:16 AM,32.0,28.4,87,30.13,10.0,West,8.1,-,N/A,,Clear,280,2013-03-27 10:16:00
6:52 AM,32.0,28.4,87,30.13,10.0,West,8.1,-,N/A,,Clear,270,2013-03-27 10:52:00
7:12 AM,32.0,28.4,87,30.13,10.0,West,8.1,-,N/A,,Clear,260,2013-03-27 11:12:00
7:32 AM,30.2,28.4,93,30.13,10.0,West,8.1,-,N/A,,Clear,270,2013-03-27 11:32:00
7:52 AM,32.0,28.4,87,30.14,10.0,West,9.2,-,N/A,,Clear,260,2013-03-27 11:52:00
8:12 AM,33.8,28.4,81,30.14,10.0,West,9.2,-,N/A,,Clear,270,2013-03-27 12:12:00
8:32 AM,33.8,28.4,81,30.15,10.0,West,10.4,-,N/A,,Clear,280,2013-03-27 12:32:00
8:52 AM,33.8,28.4,81,30.15,10.0,WNW,11.5,-,N/A,,Clear,290,2013-03-27 12:52:00
9:12 AM,35.6,28.4,75,30.15,10.0,WNW,10.4,18.4,N/A,,Clear,290,2013-03-27 13:12:00
9:32 AM,35.6,28.4,75,30.15,10.0,WNW,13.8,-,N/A,,Clear,290,2013-03-27 13:32:00
9:53 AM,37.4,28.4,70,30.15,10.0,WNW,16.1,21.9,N/A,,Clear,290,2013-03-27 13:53:00
10:13 AM,37.4,26.6,65,30.15,10.0,WNW,18.4,23.0,N/A,,Clear,300,2013-03-27 14:13:00
10:33 AM,39.2,28.4,65,30.15,10.0,WNW,17.3,23.0,N/A,,Clear,300,2013-03-27 14:33:00
10:53 AM,41.0,26.6,57,30.15,10.0,WNW,18.4,27.6,N/A,,Clear,290,2013-03-27 14:53:00
11:13 AM,42.8,26.6,53,30.15,10.0,WNW,18.4,23.0,N/A,,Clear,290,2013-03-27 15:13:00
11:33 AM,42.8,26.6,53,30.16,10.0,WNW,20.7,25.3,N/A,,Clear,300,2013-03-27 15:33:00
11:53 AM,44.6,26.6,49,30.16,10.0,WNW,18.4,21.9,N/A,,Clear,290,2013-03-27 15:53:00
12:13 PM,44.6,26.6,49,30.16,10.0,West,19.6,25.3,N/A,,Clear,280,2013-03-27 16:13:00
12:33 PM,44.6,28.4,53,30.16,10.0,WNW,17.3,26.5,N/A,,Clear,300,2013-03-27 16:33:00
12:53 PM,46.4,26.6,46,30.15,10.0,West,17.3,24.2,N/A,,Clear,280,2013-03-27 16:53:00
1:13 PM,44.6,26.6,49,30.15,10.0,NW,11.5,23.0,N/A,,Clear,310,2013-03-27 17:13:00
1:34 PM,46.4,28.4,50,30.15,10.0,West,13.8,26.5,N/A,,Scattered Clouds,280,2013-03-27 17:34:00
1:54 PM,46.4,26.6,46,30.15,10.0,NW,15.0,23.0,N/A,,Mostly Cloudy,310,2013-03-27 17:54:00
2:14 PM,46.4,28.4,50,30.14,10.0,WNW,12.7,21.9,N/A,,Mostly Cloudy,300,2013-03-27 18:14:00
2:34 PM,46.4,28.4,50,30.14,10.0,West,17.3,21.9,N/A,,Overcast,280,2013-03-27 18:34:00
2:54 PM,46.4,26.6,46,30.14,10.0,West,17.3,23.0,N/A,,Overcast,280,2013-03-27 18:54:00
3:14 PM,46.4,26.6,46,30.13,10.0,West,15.0,20.7,N/A,,Overcast,280,2013-03-27 19:14:00
3:51 PM,46.4,26.6,46,30.13,10.0,WNW,15.0,-,N/A,,Overcast,290,2013-03-27 19:51:00
4:12 PM,46.4,26.6,46,30.13,10.0,WNW,12.7,21.9,N/A,,Overcast,290,2013-03-27 20:12:00
4:32 PM,46.4,26.6,46,30.13,10.0,WNW,12.7,-,N/A,,Overcast,290,2013-03-27 20:32:00
4:52 PM,46.4,26.6,46,30.13,10.0,WNW,16.1,20.7,N/A,,Overcast,290,2013-03-27 20:52:00
5:12 PM,46.4,26.6,46,30.13,10.0,West,17.3,-,N/A,,Overcast,280,2013-03-27 21:12:00
5:32 PM,46.4,26.6,46,30.13,10.0,NW,15.0,20.7,N/A,,Overcast,310,2013-03-27 21:32:00
5:52 PM,46.4,26.6,46,30.13,10.0,West,15.0,20.7,N/A,,Overcast,280,2013-03-27 21:52:00
6:12 PM,44.6,26.6,49,30.14,10.0,West,17.3,-,N/A,,Overcast,280,2013-03-27 22:12:00
6:32 PM,44.6,26.6,49,30.14,10.0,WNW,13.8,20.7,N/A,,Overcast,290,2013-03-27 22:32:00
6:52 PM,44.6,26.6,49,30.14,10.0,WNW,13.8,-,N/A,,Overcast,290,2013-03-27 22:52:00
7:13 PM,44.6,26.6,49,30.14,10.0,WNW,12.7,-,N/A,,Overcast,290,2013-03-27 23:13:00
7:33 PM,44.6,26.6,49,30.15,10.0,WNW,13.8,-,N/A,,Overcast,290,2013-03-27 23:33:00
7:53 PM,44.6,26.6,49,30.15,10.0,WNW,10.4,-,N/A,,Overcast,290,2013-03-27 23:53:00
8:13 PM,42.8,28.4,57,30.15,10.0,WNW,9.2,-,N/A,,Overcast,290,2013-03-28 00:13:00
8:34 PM,42.8,28.4,57,30.15,10.0,West,8.1,-,N/A,,Overcast,280,2013-03-28 00:34:00
8:54 PM,41.0,28.4,61,30.16,10.0,West,9.2,-,N/A,,Mostly Cloudy,280,2013-03-28 00:54:00
9:14 PM,39.2,28.4,65,30.17,10.0,West,10.4,-,N/A,,Scattered Clouds,280,2013-03-28 01:14:00
9:34 PM,39.2,28.4,65,30.18,10.0,West,9.2,-,N/A,,Mostly Cloudy,280,2013-03-28 01:34:00
9:54 PM,37.4,28.4,70,30.18,10.0,West,6.9,-,N/A,,Mostly Cloudy,280,2013-03-28 01:54:00
10:14 PM,37.4,28.4,70,30.19,10.0,West,8.1,-,N/A,,Mostly Cloudy,280,2013-03-28 02:14:00
10:34 PM,39.2,26.6,61,30.19,10.0,West,11.5,-,N/A,,Overcast,280,2013-03-28 02:34:00
10:54 PM,37.4,26.6,65,30.19,10.0,WNW,10.4,-,N/A,,Overcast,290,2013-03-28 02:54:00
11:15 PM,37.4,26.6,65,30.19,10.0,WNW,10.4,-,N/A,,Overcast,290,2013-03-28 03:15:00
11:35 PM,37.4,26.6,65,30.19,10.0,WNW,10.4,-,N/A,,Overcast,290,2013-03-28 03:35:00
11:55 PM,35.6,26.6,70,30.19,10.0,West,10.4,-,N/A,,Overcast,280,2013-03-28 03:55:00